Warsaw/Okęcie Frédéric Chopin Airport

Airport
ICAO code: 
EPWA
IATA Code: 
WAW
Summary
ICAO Region: 
EUR
Territory: 
Location: 
Okęcie, Warsaw, Masovia
Serving: 
Warsaw
Elevation: 
361 ft
Coordinates: 
Aerial View: 
52° 9' 54" N, 20° 58' 6" E
Metar
Observation
EPWA 190730Z 25008KT 9999 BKN009 BKN017 01/00 Q1025 NOSIG
Station
Warszawa-Okecie
Date/Time
2022-01-19 07:30:00
Wind direction
250°
Wind speed
08 kts
Lowest cloud amount
broken clouds
Temperature
1°C
Dew point
0°C
Humidity
93%
QNH
1025 hPa
Weather condition
n/a

International airport serving capital city of Poland.

Climatology

Humid Continental climate (Köppen climate classification Dfb) - Variable weather patterns and a large seasonal temperature variance. Summers are often warm and humid with frequent thunderstorms and winters can be very cold with frequent snowfall and persistent snow cover.

Runways

Designator Length Width Surface Rops
11/29 2800 50 CON Yes/Yes
15/33 3690 60 CON Yes/Yes
Airport map: 
Aerial View: 

Accidents and Serious Incidents at or in the vicinity of EPWA

SKYbrary Partners:

Safety knowledge contributed by: